Location: Grange Verzio
(44.5000°N, 6.9833°E)
Time: 18:30:20
(UTC+00:00)

Cosmos 1825 - Pass Details

Date: 01 February 2023
Orbit: 480 x 487 km, 82.5° (Epoch: 29 March)

Event Time Altitude Azimuth Distance (km) Brightness Sun altitude
Rises 19:00:30 0° 215° (SW) 2,567 6.2 -25.1°
Reaches altitude 10° 19:02:51 10° 228° (SW) 1,693 5.4 -25.5°
Maximum altitude 19:05:59 26° 286° (WNW) 1,022 4.3 -26.1°
Drops below altitude 10° 19:09:10 10° 344° (NNW) 1,710 5.0 -26.6°
Enters shadow 19:09:29 - 347° (NNW) 1,822 5.1 -26.7°
